Le Raizet Airport, Guadeloupe

5:45 AM AST on June 18, 2018 (GMT -0400)
Le Raizet

Weather History for TFFR - September, 2017

Change the Weather History Date:

Friday, September 15, 2017

  Actual Average Record
Temperature  
Mean Temperature 82 °F -  
Max Temperature 88 °F 86 °F 91 °F (1998)
Min Temperature 76 °F 74 °F 73 °F (1996)
Cooling Degree Days 17    
Growing Degree Days 32 (Base 50)    
Moisture  
Dew Point 75 °F    
Average Humidity 82    
Maximum Humidity 100    
Minimum Humidity 58    
Precipitation  
Precipitation 0.67 in 0.30 in - ()
Sea Level Pressure  
Sea Level Pressure 29.98 in    
Wind  
Wind Speed 7 mph ()    
Max Wind Speed 17 mph    
Max Gust Speed -    
Visibility 6.6 miles    
Events Rain , Thunderstorm    
Averages and records for this station are not official NWS values.
T = Trace of Precipitation, MM = Missing Value Source: Averaged Metar Reports

Daily Weather History Graph

Daily Weather History Graph

Search for Another Location

Airport or City:

Astronomy

Sep. 15, 2017 Rise Set
Actual Time 5:54 AM AST 6:07 PM AST
Civil Twilight 5:32 AM AST 6:29 PM AST
Nautical Twilight 5:07 AM AST 6:54 PM AST
Astronomical Twilight 4:42 AM AST 7:19 PM AST
Moon 1:23 AM AST (9/15) 2:38 PM AST (9/15)
Length of Visible Light 12h 56m
Length of Day
12h 13m
Waning Crescent, 24% of the Moon is Illuminated
Sep 15
Waning Crescent
Sep 20
New
Sep 27
First Quarter
Oct 5
Full
Oct 12
Last Quarter

Hourly Weather History & Observations

Time (AST) Temp. Heat Index Dew Point Humidity Pressure Visibility Wind Dir Wind Speed Gust Speed Precip Events Conditions
12:00 AM 77.0 °F - 75.2 °F 94% 29.98 in - ESE 2.3 mph - N/A   Clear
12:30 AM 77.0 °F - 77.0 °F 100% 29.98 in 6.2 mi East 3.5 mph - N/A   Partly Cloudy
1:00 AM 77.0 °F - 77.0 °F 100% 29.95 in - ESE 3.5 mph - N/A   Clear
1:30 AM 77.0 °F - 75.2 °F 94% 29.95 in 6.2 mi ESE 3.5 mph - N/A   Unknown
2:00 AM 78 °F - 75 °F 89% 29.96 in 6 mi East 4.6 mph - -   Clear
2:00 AM 78.8 °F - 75.2 °F 89% 29.95 in 6.2 mi East 4.6 mph - N/A   Partly Cloudy
2:30 AM 78.8 °F - 75.2 °F 89% 29.95 in 6.2 mi ESE 5.8 mph - N/A   Partly Cloudy
3:00 AM 78.8 °F - 75.2 °F 89% 29.95 in - East 4.6 mph - N/A   Clear
3:30 AM 78.8 °F - 75.2 °F 89% 29.95 in - ESE 5.8 mph - N/A   Clear
4:00 AM 78.8 °F - 75.2 °F 89% 29.95 in 6.2 mi East 4.6 mph - N/A   Partly Cloudy
4:30 AM 77.0 °F - 75.2 °F 94% 29.95 in 6.2 mi ESE 3.5 mph - N/A   Scattered Clouds
5:00 AM 78 °F - 75 °F 87% 29.97 in 7 mi East 6.9 mph - -   Clear
5:00 AM 78.8 °F - 75.2 °F 89% 29.95 in 6.2 mi East 6.9 mph - N/A   Partly Cloudy
5:30 AM 78.8 °F - 75.2 °F 89% 29.95 in 6.2 mi East 6.9 mph - N/A   Partly Cloudy
6:00 AM 78.8 °F - 73.4 °F 83% 29.98 in 6.2 mi ESE 4.6 mph - N/A   Partly Cloudy
6:30 AM 78.8 °F - 75.2 °F 89% 29.98 in 6.2 mi ESE 4.6 mph - N/A   Partly Cloudy
7:00 AM 80.6 °F 86.2 °F 75.2 °F 84% 30.01 in - Variable 3.5 mph - N/A   Clear
7:30 AM 82.4 °F 89.5 °F 75.2 °F 79% 30.01 in - East 8.1 mph - N/A   Clear
8:00 AM 83 °F - 73 °F 64% 30.02 in 13 mi East 9.2 mph - -   Clear
8:00 AM 84.2 °F 90.9 °F 73.4 °F 70% 30.01 in - East 9.2 mph - N/A   Clear
8:30 AM 84.2 °F 90.9 °F 73.4 °F 70% 30.01 in - East 10.4 mph - N/A   Clear
9:00 AM 86.0 °F 93.4 °F 73.4 °F 66% 30.01 in - ESE 11.5 mph - N/A   Clear
9:30 AM 86.0 °F 93.4 °F 73.4 °F 66% 30.01 in 6.2 mi ESE 11.5 mph - N/A   Partly Cloudy
10:00 AM 86.0 °F 93.4 °F 73.4 °F 66% 30.01 in 6.2 mi East 12.7 mph - N/A   Partly Cloudy
10:30 AM 87.8 °F 97.6 °F 75.2 °F 66% 30.01 in 6.2 mi ESE 11.5 mph - N/A   Mostly Cloudy
11:00 AM 87 °F - 74 °F 59% 30.03 in 16 mi ESE 12.7 mph - -   Clear
11:00 AM 87.8 °F 97.6 °F 75.2 °F 66% 30.01 in 6.2 mi ESE 12.7 mph - N/A   Mostly Cloudy
11:30 AM 87.8 °F 93.8 °F 71.6 °F 58% 30.01 in 6.2 mi East 10.4 mph - N/A   Mostly Cloudy
12:00 PM 87.8 °F 95.6 °F 73.4 °F 62% 30.01 in 6.2 mi ESE 12.7 mph - N/A   Scattered Clouds
12:30 PM 86.0 °F 93.4 °F 73.4 °F 66% 30.01 in 6.2 mi East 11.5 mph - N/A   Mostly Cloudy
1:00 PM 86.0 °F 95.1 °F 75.2 °F 70% 29.98 in 6.2 mi ENE 13.8 mph - N/A   Mostly Cloudy
1:30 PM 87.8 °F 97.6 °F 75.2 °F 66% 29.98 in 6.2 mi ENE 12.7 mph - N/A   Mostly Cloudy
2:00 PM 82 °F - 76 °F 77% 29.98 in 25 mi East 17.3 mph - -   Clear
2:00 PM 82.4 °F 89.5 °F 75.2 °F 79% 29.98 in 6.2 mi East 17.3 mph - N/A   Mostly Cloudy
2:30 PM 82.4 °F 90.9 °F 77.0 °F 84% 29.95 in 6.2 mi ENE 12.7 mph - N/A   Mostly Cloudy
3:00 PM 84.2 °F 94.1 °F 77.0 °F 79% 29.95 in 6.2 mi East 12.7 mph - N/A Rain Light Rain
3:30 PM 84.2 °F 94.1 °F 77.0 °F 79% 29.95 in 6.2 mi East 9.2 mph - N/A   Mostly Cloudy
4:00 PM 82.4 °F 90.9 °F 77.0 °F 84% 29.95 in 6.2 mi East 6.9 mph - N/A   Mostly Cloudy
4:30 PM 82.4 °F 89.5 °F 75.2 °F 79% 29.95 in 6.2 mi East 16.1 mph - N/A   Mostly Cloudy
5:00 PM 79 °F - 74 °F 82% 29.97 in 31 mi ESE 11.5 mph - -   Clear
5:00 PM 78.8 °F - 75.2 °F 89% 29.95 in 6.2 mi ESE 11.5 mph - N/A   Mostly Cloudy
5:30 PM 78.8 °F - 75.2 °F 89% 29.95 in 6.2 mi East 9.2 mph - N/A   Scattered Clouds
6:00 PM 78.8 °F - 75.2 °F 89% 29.95 in - East 6.9 mph - N/A   Clear
6:30 PM 78.8 °F - 75.2 °F 89% 29.95 in 6.2 mi East 8.1 mph - N/A   Partly Cloudy
7:00 PM 78.8 °F - 75.2 °F 89% 29.95 in 6.2 mi East 4.6 mph - N/A   Scattered Clouds
7:30 PM 78.8 °F - 75.2 °F 89% 29.98 in 6.2 mi East 4.6 mph - N/A   Overcast
8:00 PM 79 °F - 76 °F 87% 29.99 in 25 mi East 5.8 mph - -   Clear
8:00 PM 78.8 °F - 75.2 °F 89% 29.98 in 6.2 mi East 5.8 mph - N/A   Overcast
8:30 PM 78.8 °F - 75.2 °F 89% 29.98 in 6.2 mi ESE 3.5 mph - N/A   Unknown
9:00 PM 78.8 °F - 75.2 °F 89% 29.98 in 6.2 mi East 4.6 mph - N/A   Scattered Clouds
9:30 PM 78.8 °F - 75.2 °F 89% 30.01 in 6.2 mi East 4.6 mph - N/A   Mostly Cloudy
10:00 PM 78.8 °F - 75.2 °F 89% 30.01 in 6.2 mi East 4.6 mph - N/A   Partly Cloudy
10:30 PM 78.8 °F - 75.2 °F 89% 30.01 in 6.2 mi East 3.5 mph - N/A   Scattered Clouds
11:00 PM 78 °F - 75 °F 88% 30.01 in 25 mi ENE 9.2 mph - -   Clear
11:00 PM 78.8 °F - 75.2 °F 89% 30.01 in 6.2 mi ENE 9.2 mph - N/A   Mostly Cloudy
11:30 PM 77.0 °F - 75.2 °F 94% 30.01 in 6.2 mi ENE 12.7 mph - N/A Thunderstorm Mostly Cloudy